Date,TemperatureHighF,TemperatureAvgF,TemperatureLowF,DewpointHighF,DewpointAvgF,DewpointLowF,HumidityHigh,HumidityAvg,HumidityLow,PressureMaxIn,PressureMinIn,WindSpeedMaxMPH,WindSpeedAvgMPH,GustSpeedMaxMPH,PrecipitationSumIn
2013-1-1,54.9,40.7,34.2,38.1,33.2,30.6,90,76,42,30.20,30.11,9,0,0,0.00
2013-1-2,58.7,41.4,33.1,38.7,32.8,27.6,89,73,45,30.17,30.07,8,0,0,0.00
2013-1-3,59.3,41.3,33.2,37.8,34.0,30.0,90,77,43,30.18,30.09,6,0,0,0.00
2013-1-4,58.9,42.9,34.9,42.1,36.1,31.0,90,78,49,30.21,30.11,5,0,0,0.00
2013-1-5,53.6,43.7,36.8,43.2,39.0,33.7,94,84,66,30.19,30.00,6,0,0,0.02
2013-1-6,52.9,44.1,39.2,46.2,42.0,37.8,96,92,76,30.10,29.99,5,0,0,0.21
2013-1-7,50.6,41.7,37.1,43.7,38.9,34.6,95,90,74,30.17,30.04,8,0,0,0.00
2013-1-8,57.9,44.5,38.0,46.2,40.9,37.0,97,88,63,30.17,30.06,4,0,0,0.01
2013-1-9,51.3,44.5,39.8,45.6,41.9,38.1,100,91,79,30.10,29.82,10,0,0,0.30
2013-1-10,49.6,38.8,32.6,39.6,33.7,30.0,96,83,52,30.06,29.92,11,1,0,0.00
2013-1-11,51.2,37.0,29.8,34.3,30.0,28.0,94,78,43,30.15,30.04,7,0,0,0.00
2013-1-12,49.6,36.0,29.4,28.5,25.0,19.9,89,66,35,30.15,30.06,8,0,0,0.00
2013-1-13,48.7,35.1,27.0,29.9,23.2,15.0,92,64,40,30.18,30.08,9,1,0,0.00
2013-1-14,52.9,36.7,27.4,27.4,21.4,13.6,76,55,27,30.32,30.11,7,0,0,0.00
2013-1-15,53.3,38.4,30.0,33.4,29.3,25.0,84,71,45,30.42,30.31,6,0,0,0.00
2013-1-16,62.2,42.3,32.0,36.3,32.1,28.3,87,70,35,30.36,30.20,6,0,0,0.00
2013-1-17,67.0,44.7,33.6,38.0,33.2,27.7,85,67,32,30.20,30.09,7,0,0,0.00
2013-1-18,68.1,47.6,37.3,38.9,33.6,27.7,78,61,33,30.16,30.06,6,0,0,0.00
2013-1-19,67.7,47.9,37.2,37.9,34.3,28.9,83,62,31,30.19,30.08,7,0,0,0.00
2013-1-20,68.0,47.7,37.9,38.3,33.7,28.9,78,61,31,30.16,30.04,6,0,0,0.00
2013-1-21,67.0,47.8,38.1,41.1,35.2,29.0,79,64,36,30.11,30.03,7,0,0,0.00
2013-1-22,69.2,49.8,39.1,43.5,36.6,28.4,78,62,31,30.07,29.94,7,0,0,0.00
2013-1-23,62.1,50.8,45.8,47.8,40.4,33.1,92,69,37,30.00,29.89,5,0,0,0.06
2013-1-24,58.9,51.6,46.8,54.0,49.4,45.5,96,92,81,30.10,29.97,6,0,0,0.07
2013-1-25,66.8,55.8,51.1,57.8,52.7,49.8,98,90,69,30.10,29.93,9,0,0,0.03
2013-1-26,58.7,50.7,43.2,51.9,46.5,39.0,97,86,59,29.94,29.83,8,0,0,0.00
2013-1-27,55.2,43.4,35.8,42.7,38.0,34.2,97,82,56,30.05,29.91,9,0,0,0.05
2013-1-28,55.9,43.3,35.1,37.3,34.4,30.2,87,72,48,30.17,30.03,10,1,0,0.00
2013-1-29,57.7,45.6,38.3,39.5,37.0,33.6,87,73,51,30.23,30.14,12,1,0,0.00
2013-1-30,63.2,48.5,39.2,44.7,40.7,36.0,90,76,49,30.26,30.18,9,0,0,0.00
2013-1-31,67.7,49.9,39.5,48.0,42.3,36.8,91,77,48,30.22,30.10,8,0,0,0.00